Время (UTC), дата Ветер
(°,м/с) 
Видим.   Явления Облачность Т
(°С)
Тd
(°С)
f(%) Тe
(°С)
Pmin
(гПа)
dP
(гПа)
Po
(мм)
O2
(г/м3)
Тmin Tmax R s Состояние
почвы
00 01.10.16 160 (Ю) 10 км  слаб. дождь  10/10 210 м 
[Ns]
+8.3 +6.8 90 +9  1011.2  -2.3  748  291           
03 01.10.16 170 (Ю) 10 км  в посл. час дождь  10/10 150 м 
[Frnb|Ns]
+8.8 +7.6 92 +10  1010.1  -1  747  290  +8.3      мокрая 
06 01.10.16 240 (ЮЗ) 10 км  {дождь}  10/10 300 м 
[Ns]
+10.2 +9 92 +11  1010.6  0.6  747  289           
09 01.10.16 230 (ЮЗ) 10 км    10/10 800 м 
[Ns]
+12.6 +10 84 +14  1011  0.5  748  286           
12 01.10.16 270 (З) 10 км    8/5 600 м кучево-дожд., средняя, верхняя 
[Cb cap|Ac trans|Ci fib]
+15.4 +10.4 72 +18  1011.2  0.4  748  283           
15 01.10.16 280 (З) 10 км    4/4 600 м кучево-дожд. 
[Cb cap]
+13.3 +9.5 78 +16  1012.7  1.4  749  286    +15.4       
18 01.10.16 тихо ()   10 км    ясно 
+9.4 +7.3 87 +9  1014.9  1.9  750  291           
21 01.10.16 170 (Ю) 10 км    ясно 
+7.3 +5.9 91 +8  1016.2  1.2  751  294           
00 02.10.16 тихо ()   10 км    9/0 средняя 
[Ac lent]
+8.2 +6.5 89 +8  1017.3  1.2  752  293           
03 02.10.16 170 (Ю) 10 км    ясно 
+6.5 +5.1 91 +7  1018.7  1.3  753  296  +6.5        влажная 
06 02.10.16 280 (З) 10 км    4/0 средняя 
[Ac trans]
+12.3 +7.9 74 +13  1020.3  1.8  754  290  +6.4         
09 02.10.16 260 (З) 10 км    6/3 600 м средняя 
[Sc diur, vesp|Ac trans]
+16.8 +7.9 56 +17  1021.3  1.2  755  285           
12 02.10.16 280 (З) 10 км    6/4 300 м верхняя 
[Cu med, cong|Ci fib]
+17.1 +5.2 45 +18  1022.4  1.1  756  286           
15 02.10.16 230 (ЮЗ) 10 км    4/0 верхняя 
[Cs]
+11.8 +6.3 69 +13  1024.2  1.5  757  292    +17.4       
18 02.10.16 тихо ()   10 км    6/0 средняя 
[Ac trans]
+9 +6.1 82 +9  1025.4  758  295           
21 02.10.16 120 (ЮВ) 10 км    10/0 средняя 
[Ac As]
+9.8 +6.2 78 +11  1026.1  0.7  759  294           
00 03.10.16 тихо ()   10 км    9/0 средняя 
[Ac As]
+10.6 +6.1 74 +11  1026.1  759  293           
03 03.10.16 100 (В) 10 км    9/0 средняя, верхняя 
[Ac trans|Ci fib]
+9.3 +7.3 87 +10  1025.4  -0.8  758  294  +8.7        влажная 
06 03.10.16 100 (В) 10 км  слаб. дождь  10/10 210 м 
[Ns]
+10.1 +8.2 88 +11  1025.3  758  293           
09 03.10.16 150 (ЮВ) 10 км  {дождь}  10/6 600 м средняя 
[Sc|As op]
+12.3 +10.7 90 +14  1023.4  -1.7  757  290           
12 03.10.16 140 (ЮВ) 4000 м  в посл. час дождь  10/10 120 м 
[St]
+13.2 +12 92 +18  1022.4  -0.9  756  288           
15 03.10.16 140 (ЮВ) 2000 м  дымка  10/10 100 м 
[St]
+14.1 +13.1 94 +20  1021.7  -0.6  756  287    +14.1     
18 03.10.16 150 (ЮВ) 0200 м  туман  10/10 50 м 
[St]
+13.7 +12.8 94 +20  1021  -0.8  755  287           
21 03.10.16 120 (ЮВ) 10 км  {туман}  3/0 верхняя 
[Ci fib]
+12.1 +11.3 95 +16  1020.5  -0.6  755  289           
00 04.10.16 110 (В) 10 км  {туман}  8/0 верхняя 
[Cs]
+11.1 +10.1 94 +13  1020.2  -0.3  754  290           
03 04.10.16 130 (ЮВ) 10 км    10/0 верхняя 
[Cs]
+10.6 +9.6 94 +13  1019.7  -0.5  754  291  +10.5        влажная 
06 04.10.16 170 (Ю) 10 км    10/0 верхняя 
[Cs]
+14.2 +11.4 83 +18  1020.1  0.5  754  287           
09 04.10.16 170 (Ю) 10 км    10/0 верхняя 
[Cs]
+18.5 +12.4 68 +24  1019.6  -0.2  754  282           
12 04.10.16 240 (ЮЗ) 10 км    9/8 600 м средняя, верхняя 
[Sc|Ac lent|Ci fib]
+18.9 +11.2 61 +23  1019.8  0.2  754  282           
15 04.10.16 170 (Ю) 10 км    9/0 средняя 
[Ac lent]
+16.7 +11.6 72 +21  1020.9  755  285    +20.3       
18 04.10.16 140 (ЮВ) 10 км    5/0 средняя 
[Ac lent]
+14.4 +9.7 73 +17  1021.8  0.7  756  287           
21 04.10.16 100 (В) 10 км    9/5 600 м средняя 
[Sc|Ac lent]
+12.7 +9.2 79 +14  1022.7  0.8  756  290           
00 05.10.16 140 (ЮВ) 10 км    6/0 средняя 
[Ac lent]
+11.3 +7.9 80 +12  1023.7  0.9  757  292           
03 05.10.16 150 (ЮВ) 10 км    8/0 средняя, верхняя 
[Ac lent|Cs]
+10 +7.4 84 +11  1024.3  0.6  757  293  +9.8        влажная 
06 05.10.16 150 (ЮВ) 10 км    9/0 верхняя 
[Cs]
+14 +8.6 70 +15  1025.4  1.2  758  289           
09 05.10.16 020 (С) 10 км    10/0 верхняя 
[Cs]
+18.9 +9.1 53 +20  1025.6  0.5  759  284           
12 05.10.16 050 (СВ) 10 км    10/4 600 м верхняя 
[Sc|Cs]
+14.7 +11 78 +17  1026.8  759  288           
15 05.10.16 060 (СВ) 10 км    10/10 300 м 
[St]
+10.6 +8.8 89 +11  1028.3  1.2  760  293    +19.9       
18 05.10.16 070 (В) 10 км    10/10 300 м 
[St]
+9.7 +7.4 86 +9  1029.2  0.9  761  295           
21 05.10.16 060 (СВ) 10 км    10/10 400 м 
[St]
+9.5 +6.8 83 +10  1029.9  0.7  761  295           
00 06.10.16 080 (В) 10 км    10/10 400 м 
[St]
+8.6 +6.3 85 +9  1030.8  0.8  762  297           
03 06.10.16 070 (В) 3{10}  10 км    10/10 660 м 
[Sc]
+8 +4.5 79 +7  1031.9  1.1  763  298  +8        влажная 
06 06.10.16 080 (В) 10 км    10/10 800 м 
[Sc diur, vesp]
+8.1 +4.1 76 +7  1032.6  0.6  763  298  +7.8         
09 06.10.16 080 (В) 10 км    10/10 870 м 
[Sc diur, vesp]
+8.6 +2.8 67 +7  1032.8  0.2  764  298           
12 06.10.16 090 (В) 10 км    8/0 средняя, верхняя 
[Ac trans|Ci fib]
+9.9 +2.6 60 +9  1032.5  -0.3  763  296           
15 06.10.16 090 (В) 10 км    4/0 верхняя 
[Cs]
+7.2 +2.2 70 +6  1032.1  -0.5  763  299    +10.1       
18 06.10.16 100 (В) 10 км    10/0 средняя 
[Ac und]
+6.4 +2 73 +5  1031.4  -0.8  762  300           
21 06.10.16 100 (В) 10 км    10/0 средняя, верхняя 
[Ac trans|Ci fib]
+5.5 +1.9 78 +4  1030.9  -0.5  762  301           
00 07.10.16 090 (В) 10 км    10/3 1000 м средняя 
[Sc|Ac As]
+5.4 +1.9 78 +4  1029.8  -1  761  301           
03 07.10.16 090 (В) 10 км    10/5 1500 м средняя 
[Sc|Ac As]
+5.1 +1.9 80 +4  1028.3  -1.6  760  300  +5.1        влажная 
06 07.10.16 090 (В) 10 км    10/5 1000 м средняя 
[Sc|Ac As]
+6.1 +2.7 79 +5  1027.3  -0.9  759  299  +5         
09 07.10.16 090 (В) 10 км    10/6 600 м средняя 
[Sc|Ac As]
+8.7 +4.5 75 +8  1025.9  -1.2  758  295           
12 07.10.16 090 (В) 10 км  в посл. час ливневой дождь  10/8 600 м кучево-дожд., средняя 
[Cb cap|As op]
+8.3 +6.3 87 +8  1025.9  758  296           
15 07.10.16 100 (В) 10 км  слаб. ливневой дождь  10/8 330 м кучево-дожд., средняя 
[Cb cap|As op]
+8 +6.8 92 +7  1025.6  -0.3  758  296    +9.1  14     
18 07.10.16 100 (В) 4000 м  дождь{ливн. осадки}  10/10 210 м 
[Frnb|Ns]
+8.7 +7.4 92 +9  1025  -0.5  758  295           
21 07.10.16 090 (В) 10 км  {дождь}  8/5 600 м кучево-дожд., средняя 
[Cb cap|Ac trans]
+8.5 +7.3 92 +9  1023.9  -1.1  757  295           
00 08.10.16 090 (В) 10 км  {дождь}  10/6 600 м кучево-дожд., средняя, верхняя 
[Cb cap|Ac trans|Ci fib]
+8 +6.9 93 +8  1023.7  -0.2  757  295           
03 08.10.16 130 (ЮВ) 10 км  слаб. дождь  10/10 180 м 
[Frnb|Ns]
+8.4 +7.3 93 +8  1023  -0.7  756  294  +8    0.5    влажная 
06 08.10.16 тихо ()   4000 м  слаб. дождь  10/10 180 м 
[Frnb|Ns]
+8.7 +7.6 93 +9  1024.5  1.4  757  294           
09 08.10.16 090 (В) 10 км  {дождь}  10/0 средняя 
[As op]
+9.4 +7.9 90 +9  1023.8  -0.7  757  293           
12 08.10.16 070 (В) 10 км  {дождь}  10/10 270 м 
[St]
+8.7 +7.1 90 +8  1025.4  1.5  758  295           
15 08.10.16 060 (СВ) 10 км    10/10 400 м 
[St]
+7.7 +5.6 87 +7  1027.1  1.7  759  297    +9.6     
18 08.10.16 070 (В) 10 км    10/5 600 м средняя 
[Sc|As op]
+6.8 +4.4 85 +6  1028.8  1.6  761  298           
21 08.10.16 070 (В) 3{10}  10 км    10/6 300 м средняя 
[Sc|As op]
+5.5 +2.8 83 +4  1029.7  0.8  761  300           
00 09.10.16 060 (СВ) 10 км    3/0 средняя 
[Ac lent]
+2.3 +0.1 85 +2  1030.8  0.9  762  304           
03 09.10.16 050 (СВ) 10 км    3/0 верхняя 
[Cs]
+0.7 -1.2 87 1030.9  762  306  +0.7        влажная 
06 09.10.16 070 (В) 10 км    ясно 
+3.9 +0.2 77 +5  1031.3  0.6  762  303  +0.3         
09 09.10.16 060 (СВ) 10 км    ясно 
+8.4 +0.5 57 +8  1029.9  -1.1  761  298           
12 09.10.16 070 (В) 10 км    1/0 верхняя 
[Ci fib]
+8.9 +0.5 56 +9  1028.5  -1.3  760  297           
15 09.10.16 050 (СВ) 10 км    3/0 верхняя 
[Ci fib]
+5.5 +0.7 71 +6  1028.3  -0.3  760  300    +9.3       
18 09.10.16 050 (СВ) 10 км    3/0 верхняя 
[Ci fib]
+4.5 -0 73 +4  1027.8  -0.5  760  301           
21 09.10.16 060 (СВ) 10 км    ясно 
+1.4 -1.1 83 +1  1028  0.1  760  305           
00 10.10.16 360 (С) 10 км    ясно 
+0 -1.7 88 +1  1027.9  -0.3  760  306           
03 10.10.16 030 (СВ) 10 км    10/10 330 м 
[St]
+1.1 -0.8 87 1027.7  0.1  759  305  -0.2        замёрзшая 
06 10.10.16 350 (С) 10 км    10/10 360 м 
[St]
+1.2 -1 85 +1  1027.9  0.2  760  305           
09 10.10.16 020 (С) 10 км    9/9 600 м 
[Sc diur, vesp]
+4.2 -0.3 72 +4  1027.2  -0.5  759  301           
12 10.10.16 360 (С) 10 км    10/10 1050 м 
[Sc diur, vesp]
+5.8 -1.3 60 +6  1026.5  -0.6  759  300           
15 10.10.16 350 (С) 10 км    10/10 1440 м 
[Sc diur, vesp]
+4.6 +0 72 +4  1027  0.4  759  301    +6.8       
18 10.10.16 350 (С) 10 км    10/9 1500 м средняя 
[Sc|Ac und]
+4.4 -1.1 67 +4  1027.3  0.3  759  301           
21 10.10.16 340 (С) 10 км    10/9 1500 м средняя 
[Sc|Ac und]
+3.4 -2.6 65 +4  1027.3  759  302           
00 11.10.16 340 (С) 10 км    10/8 1500 м средняя 
[Sc|Ac und]
+2 -2.3 73 +1  1027  -0.4  759  304           
03 11.10.16 350 (С) 10 км    10/10 1500 м 
[Sc]
+1.2 -2.3 77 +2  1026.9  -0.2  759  305  +1.2        влажная 
06 11.10.16 350 (С) 10 км    8/6 1000 м средняя 
[Sc|Ac lent]
+2.5 -1.6 74 +2  1027.2  0.4  759  303           
09 11.10.16 040 (СВ) 10 км    8/6 1000 м кучево-дожд., средняя 
[Cb cap|Ac lent]
+5.1 -4.3 51 +6  1026.8  -0.3  759  301           
12 11.10.16 350 (С) 10 км    9/6 1000 м кучево-дожд., средняя 
[Cb cap|Ac lent]
+4.8 -3.9 53 +4  1026.9  0.1  759  301           
15 11.10.16 350 (С) 10 км    9/6 1000 м средняя 
[Sc|Ac lent]
+3.5 -1.6 69 +3  1027.7  0.7  760  302    +5.7       
18 11.10.16 320 (СЗ) 10 км    ясно 
+1.3 -1.9 79 +2  1028.6  0.8  760  305           
21 11.10.16 тихо ()   10 км    ясно 
+0.3 -2.1 84 1029.1  0.5  761  306           
00 12.10.16 330 (СЗ) 10 км    5/0 верхняя 
[Cs]
-0.7 -2.6 87 1029.4  0.2  761  308           
03 12.10.16 330 (СЗ) 10 км    10/5 1000 м кучево-дожд., средняя 
[Cb cap|As op]
-0.2 -1.8 89 1029.7  0.3  761  307  -1.3         
06 12.10.16 290 (З) 10 км  {ливн. осадки}  10/0 средняя 
[Ac und]
+2 -0.6 83 +3  1029.6  0.1  761  304           
09 12.10.16 300 (СЗ) 10 км    9/8 720 м средняя 
[Sc|Ac lent]
+4.8 -0.7 68 +4  1029.2  -0.2  761  301           
12 12.10.16 260 (З) 10 км    10/3 600 м средняя, верхняя 
[Sc|Ac lent|Ci fib]
+5.4 -1.9 59 +5  1028.1  -1.1  760  300           
15 12.10.16 290 (З) 10 км    9/9 1380 м 
[Sc]
+4.9 -2.5 59 +4  1027.5  -0.5  760  301    +5.4  0.0     
18 12.10.16 290 (З) 10 км    9/9 1000 м 
[Sc]
+4.5 -2.3 61 +4  1026.7  -0.8  759  301           
21 12.10.16 280 (З) 10 км    10/8 1140 м средняя 
[Sc|As op]
+3.8 +0 76 +3  1025.5  -1.2  758  301           
00 13.10.16 290 (З) 10 км    10/8 900 м средняя 
[Sc|As op]
+3.1 +0.2 81 +3  1024.3  -1.3  757  302           
03 13.10.16 290 (З) 10 км  {дождь}  10/8 800 м средняя 
[Sc|As op]
+2.9 -1.4 73 +2  1023.1  -1.2  756  302  +2.7    0.0    влажная 
06 13.10.16 290 (З) 10 км  {дождь}  10/8 1110 м средняя 
[Sc|Ac und]
+2.9 -2.3 69 +2  1022.2  -0.9  755  301  +2.5         
09 13.10.16 280 (З) 10 км    10/9 1050 м средняя 
[Sc|Ac trans]
+3.1 -2.4 67 +2  1021.1  -1.1  755  301           
12 13.10.16 300 (СЗ) 10 км    10/10 870 м 
[Sc]
+3 -2.7 66 +2  1020.8  -0.3  754  301           
15 13.10.16 320 (СЗ) 10 км    10/8 900 м средняя 
[Sc|Ac und]
+2.4 -2.1 72 +2  1021.1  0.3  755  302    +3.4       
18 13.10.16 310 (СЗ) 10 км    10/10 800 м 
[Sc]
+2.3 -2.3 72 +2  1021  0.1  755  302           
21 13.10.16 300 (СЗ) 10 км    10/10 700 м 
[Sc]
+2.1 -2 74 +1  1021.1  0.1  755  302           
00 14.10.16 300 (СЗ) 10 км    10/10 570 м 
[Sc]
+2.1 -0.8 81 +3  1020.8  -0.3  754  302           
03 14.10.16 290 (З) 10 км    10/10 480 м 
[Sc]
+2.1 -0.3 84 +1  1020.5  -0.3  754  302  +1.9        влажная 
06 14.10.16 290 (З) 10 км    10/10 450 м 
[Sc]
+2.9 +0.2 82 +2  1020.5  0.1  754  301           
09 14.10.16 310 (СЗ) 10 км    10/10 480 м 
[Sc]
+4.3 +1 79 +4  1020.9  0.4  755  299           
12 14.10.16 290 (З) 10 км    10/10 540 м 
[Sc]
+4.9 +1.1 76 +5  1020.8  0.1  755  298           
15 14.10.16 290 (З) 10 км    10/10 600 м 
[Sc]
+4.5 +1.8 83 +4  1021.6  0.8  755  299    +4.9       
18 14.10.16 300 (СЗ) 10 км  слаб. дождь  10/8 240 м средняя 
[Frnb|As op]
+4.2 +2.4 88 +4  1021.8  0.2  755  299           
21 14.10.16 340 (С) 10 км  {дождь}  10/9 300 м средняя 
[Frnb|As op]
+3.9 +2.3 89 +5  1022.2  0.3  755  300           
00 15.10.16 340 (С) 10 км  {дождь}  10/9 240 м средняя 
[St|As op]
+3.3 +1.9 91 +4  1022.4  0.2  756  301           
03 15.10.16 050 (СВ) 10 км  в посл. час дождь  10/9 300 м средняя 
[Frnb|As op]
+3.2 +1.7 90 +4  1023.2  0.8  756  301  +3.2    0.5    влажная 
06 15.10.16 080 (В) 10 км  {дождь}  10/9 300 м средняя 
[Frnb|As op]
+3.4 +1.4 87 +2  1024.2  757  301  +3.1         
09 15.10.16 080 (В) 10 км    10/9 480 м средняя 
[Sc|As op]
+4.3 +1.1 80 +4  1025.5  1.3  758  301           
12 15.10.16 100 (В) 10 км    10/9 700 м кучево-дожд., средняя 
[Cb calv|As op]
+3.9 +0.9 81 +5  1026.3  0.7  759  301           
15 15.10.16 060 (СВ) 10 км    10/3 1000 м средняя 
[Sc|As op]
+4.3 -0.7 70 +5  1027.2  759  301    +4.9       
18 15.10.16 030 (СВ) 10 км    6/6 1000 м 
[Sc]
+2.6 +0.1 84 +3  1028  0.7  760  303           
21 15.10.16 070 (В) 10 км    10/10 300 м 
[St]
+2.4 +0.2 85 +2  1028.4  0.4  760  304           
00 16.10.16 350 (С) 10 км  {дождь}  10/10 300 м 
[Frnb]
+2 +0.3 88 +3  1028.6  0.2  760  304           
03 16.10.16 050 (СВ) 10 км    10/10 300 м 
[Frnb]
+1.6 +0 89 +2  1029.3  0.6  761  305  +1.6    0.3    влажная 
06 16.10.16 070 (В) 10 км    9/0 средняя 
[Ac lent]
+3.1 +0.4 82 +4  1030.5  1.2  762  303  +1.3         
09 16.10.16 080 (В) 10 км    4/1 1000 м средняя 
[Sc|Ac lent]
+6 -4.7 46 +6  1030.9  0.5  762  301           
12 16.10.16 060 (СВ) 10 км    3/3 1000 м 
[Sc]
+5.2 -6.2 44 +4  1031.2  0.3  762  302           
15 16.10.16 100 (В) 10 км    1/0 средняя 
[Ac lent]
+2.5 -4.6 59 +3  1032.7  1.3  763  305    +6.4       
18 16.10.16 110 (В) 10 км    8/0 средняя 
[Ac As]
+0.7 -4.7 67 +1  1033.6  0.8  764  308           
21 16.10.16 тихо ()   10 км    4/0 средняя 
[Ac lent]
-1.3 -5 76 -1  1034  0.3  764  310           
00 17.10.16 160 (Ю) 10 км    6/0 средняя 
[Ac lent]
-1.5 -5.5 74 -1  1033.9  0.1  764  310           
03 17.10.16 270 (З) 10 км    9/6 600 м средняя 
[Sc|Ac lent]
+0.2 -4 73 +1  1033.3  -0.5  764  308  -1.5        влажная 
06 17.10.16 270 (З) 10 км    10/10 500 м 
[Sc]
+0.7 -1.6 85 -1  1033.3  -0.1  764  307           
09 17.10.16 300 (СЗ) 10 км    10/10 800 м 
[Sc]
+1.7 -1.8 78 +1  1032.6  -0.7  763  306           
12 17.10.16 300 (СЗ) 10 км    10/10 1110 м 
[Sc]
+2.7 -3.7 63 +1  1030.8  -1.7  762  304           
15 17.10.16 300 (СЗ) 10 км    10/10 1050 м 
[Sc]
+2.3 -3.6 65 +1  1030  -0.7  761  305    +2.9       
18 17.10.16 300 (СЗ) 10 км    10/10 1080 м 
[Sc]
+2.5 -2.2 71 +1  1028.4  -1.6  760  304           
21 17.10.16 300 (СЗ) 10 км    10/10 1080 м 
[Sc]
+2.1 -1.5 77 +1  1027.3  -1.1  759  304           
00 18.10.16 300 (СЗ) 10 км  слаб. дождь  10/10 480 м 
[Sc]
+1.9 -0.9 82 +1  1026.3  -1.1  758  304           
03 18.10.16 310 (СЗ) 10 км    10/10 400 м 
[St]
+1.8 -0.9 82 +1  1026.3  758  304  +1.7        влажная 
06 18.10.16 300 (СЗ) 10 км  {ливн. осадки}  10/10 600 м кучево-дожд. 
[Cb cap]
+2.6 -0.4 81 +1  1026.2  758  303           
09 18.10.16 310 (СЗ) 10 км  слаб. дождь  10/10 800 м 
[Sc diur, vesp]
+3.8 -0.7 72 +3  1025.5  -0.7  758  301           
12 18.10.16 290 (З) 10 км  {дождь}  10/8 600 м кучево-дожд., средняя 
[Cb cap|Ac trans]
+4.5 -1.1 67 +3  1025.4  758  301           
15 18.10.16 290 (З) 10 км    10/10 870 м 
[Sc diur, vesp]
+3.9 -0.5 73 +3  1026.1  0.7  758  301    +4.6       
18 18.10.16 270 (З) 10 км    10/9 1500 м средняя 
[Sc|Ac und]
+3.3 -0.7 75 +3  1026.3  0.1  758  302           
21 18.10.16 300 (СЗ) 10 км    10/10 1380 м 
[Sc]
+3.1 -0.5 77 +3  1026.6  0.3  759  302           
00 19.10.16 300 (СЗ) 10 км    10/8 700 м средняя 
[Sc|Ac und]
+3 -0.2 79 +2  1027.1  0.5  759  303           
03 19.10.16 280 (З) 10 км    10/8 870 м средняя 
[Sc|Ac und]
+2.6 -0.2 82 +3  1027.8  0.7  760  303  +2.5        влажная 
06 19.10.16 300 (СЗ) 10 км    10/8 480 м средняя 
[Sc|As op]
+3.5 +0 78 +3  1028.5  0.7  760  302           
09 19.10.16 300 (СЗ) 10 км    10/8 600 м средняя 
[Sc|As op]
+5 -0.1 70 +6  1028.9  0.5  761  301           
12 19.10.16 290 (З) 10 км    9/6 600 м средняя 
[Sc|Ac lent]
+5.3 +0.5 71 +5  1029.1  0.2  761  301           
15 19.10.16 290 (З) 10 км    10/6 600 м средняя 
[Sc|Ac lent]
+4.8 +0.8 75 +4  1029.4  0.3  761  301    +5.7       
18 19.10.16 310 (СЗ) 10 км  в посл. час дождь  10/8 600 м средняя 
[Sc diur, vesp|As op]
+4.3 +1.2 80 +5  1029.6  0.2  761  302           
21 19.10.16 290 (З) 10 км    10/8 660 м средняя 
[Sc diur, vesp|As op]
+3.7 +0.9 82 +3  1030  0.3  761  303           
00 20.10.16 290 (З) 10 км    9/0 средняя 
[Ac trans]
+3.5 +0.5 81 +4  1030.3  0.3  761  303           
03 20.10.16 290 (З) 10 км    10/6 540 м средняя 
[Sc diur, vesp|As op]
+3.1 +0.7 84 +4  1030.4  0.1  762  303  +3        влажная 
06 20.10.16 310 (СЗ) 10 км  слаб. дождь  10/10 270 м 
[Frnb|Ns]
+3 +0.9 86 +2  1031  0.5  762  304  +3         
09 20.10.16 330 (СЗ) 10 км  {дождь}  10/10 300 м 
[St]
+4.1 +2.2 87 +5  1031.9  1.1  763  302           
12 20.10.16 330 (СЗ) 10 км  {дождь}  9/3 600 м средняя 
[Sc|Ac lent]
+6.1 +1.5 72 +7  1032.2  0.3  763  301           
15 20.10.16 350 (С) 10 км    10/10 870 м 
[Sc]
+5.3 +1.2 75 +6  1033.1  0.9  764  302    +6.7       
18 20.10.16 350 (С) 10 км  {дождь}  9/9 900 м 
[Sc]
+3.5 +1.3 85 +4  1034.1  0.9  764  304           
21 20.10.16 030 (СВ) 10 км    10/8 840 м средняя 
[Sc|As op]
+3.3 +1.3 87 +4  1034.9  0.7  765  304           
00 21.10.16 020 (С) 10 км    10/8 900 м средняя 
[Sc|As op]
+3.1 +1.3 88 +4  1035.6  0.7  765  305           
03 21.10.16 060 (СВ) 10 км  {дождь}  10/8 750 м средняя 
[Sc|As op]
+2.7 +0.9 88 +3  1036.4  0.8  766  306  +2.6    0.8    влажная 
06 21.10.16 110 (В) 10 км  {дождь}  10/3 1000 м средняя 
[Sc|Ac und]
+2.7 +0.8 87 +2  1037.6  1.2  767  306  +2.3         
09 21.10.16 070 (В) 10 км    10/4 1000 м средняя 
[Sc|Ac und]
+4.7 -2 62 +6  1038.1  0.6  767  304           
12 21.10.16 350 (С) 10 км    10/3 1000 м средняя 
[Sc|Ac und]
+4.4 -2.9 59 +5  1038  -0.2  767  305           
15 21.10.16 100 (В) 10 км    10/10 1200 м 
[Sc]
+3.4 -3 63 +3  1038.9  0.8  768  306    +5       
18 21.10.16 100 (В) 10 км  слаб. снег  10/10 900 м 
[Sc]
+2.5 -2 72 +2  1039.8  0.8  768  307           
21 21.10.16 110 (В) 10 км  {снег}  10/0 средняя 
[Ac und]
+0.8 -0.6 90 +1  1040  0.1  769  309           
00 22.10.16 140 (ЮВ) 10 км  {снег}  10/0 средняя 
[Ac und]
+0.9 -0.6 90 +2  1040.6  0.6  769  309           
03 22.10.16 140 (ЮВ) 10 км    10/0 средняя 
[Ac und]
+0.8 -0.8 89 +1  1041.1  0.4  769  309  +0.8    0.3    влажная 
06 22.10.16 тихо ()   10 км  слаб. снег  10/10 420 м 
[Sc]
+2 +0.3 88 +2  1042.1  1.1  770  308  +0.8         
09 22.10.16 тихо ()   4000 м  снег  10/10 360 м 
[Frnb|Ns]
+2.1 +0.5 89 +2  1042.5  0.4  770  308           
15 22.10.16 110 (В) 10 км  слаб. дождь  10/10 300 м 
[Frnb|Ns]
+2.1 +0.2 87 +1  1044.1  0.7  772  309    +3.2     
18 22.10.16 060 (СВ) 10 км  {дождь}  10/8 1500 м средняя 
[Sc|Ac und]
+1.6 -0.5 86 +2  1045.1  772  309           
21 22.10.16 080 (В) 10 км    ясно 
+0 -2.9 81 -1  1046.3  1.1  773  312           
00 23.10.16 070 (В) 10 км    ясно 
-1.5 -4.7 79 -1  1047.1  0.7  774  314           
03 23.10.16 070 (В) 10 км    ясно 
-2.1 -5.6 77 -3  1048.2  774  315  -2.2    0.0    замёрзшая 
06 23.10.16 070 (В) 10 км    ясно 
-0.3 -5.9 66 1049.4  1.2  775  313  -2.3         
09 23.10.16 080 (В) 10 км    ясно 
+2.7 -8.1 45 +1  1049.8  0.6  776  310           
12 23.10.16 060 (СВ) 10 км    3/3 1000 м 
[Sc]
+2.7 -9.5 40 +2  1049.8  0.6  776  311           
15 23.10.16 070 (В) 10 км    ясно 
+0.6 -9.1 48 +1  1050.6  0.7  776  313    +3.2       
18 23.10.16 070 (В) 10 км    ясно 
-0.3 -8.6 53 1051.2  0.5  777  314           
21 23.10.16 090 (В) 10 км    ясно 
-0.9 -8.3 57 1052.1  0.8  777  315           
00 24.10.16 010 (С) 10 км    10/0 средняя 
[As op]
-1.9 -6.3 72 -1  1052.3  0.2  778  316           
03 24.10.16 300 (СЗ) 10 км    10/0 средняя 
[As op]
-0.9 -5.2 73 1052.4  0.2  778  315  -3.1         
06 24.10.16 300 (СЗ) 10 км    10/0 средняя 
[As op]
+0.6 -5.2 65 1052.4  778  313           
09 24.10.16 320 (СЗ) 4000 м  слаб. снег  10/0 средняя 
[As op]
+1.3 -3.7 69 +1  1051.6  -0.7  777  312           
12 24.10.16 310 (СЗ) 10 км  {снег}  10/0 средняя 
[As op]
+2.5 -3.6 64 +2  1051  -0.6  777  311           
15 24.10.16 310 (СЗ) 10 км    10/0 средняя 
[As op]
+2 -3.7 66 +1  1050.4  -0.6  776  311    +2.7  0.0     
18 24.10.16 350 (С) 10 км    4/0 средняя 
[Ac lent]
-0.2 -3.3 80 -1  1050.3  -0.2  776  313           
21 24.10.16 330 (СЗ) 10 км    ясно 
-0.9 -3.9 80 1050.2  -0.1  776  314           
00 25.10.16 320 (СЗ) 10 км    ясно 
-1.7 -4 84 -1  1050.2  0.1  776  315           
03 25.10.16 320 (СЗ) 10 км    ясно 
-3 -4.7 88 -3  1050.1  0.1  776  317  -3    0.0     
06 25.10.16 340 (С) 10 км    ясно 
-1.8 -4.2 84 -3  1050.1  776  315  -3.3         
09 25.10.16 340 (С) 10 км    9/9 930 м 
[Sc]
+0.1 -3.9 74 -1  1049.5  -0.5  776  313           
12 25.10.16 010 (С) 10 км    10/10 1300 м 
[Sc]
+1.2 -5 63 +1  1048.7  -0.7  775  312           
15 25.10.16 050 (СВ) 10 км    10/9 1380 м средняя 
[Sc|Ac und]
+0.5 -3.7 73 +1  1048  -0.7  774  312    +2       
18 25.10.16 070 (В) 10 км    10/10 800 м 
[Sc]
+0.2 -4.7 70 +1  1047.4  -0.6  774  312           
21 25.10.16 100 (В) 10 км    10/10 800 м 
[Sc]
-0.2 -4.6 72 1046.8  -0.6  774  312           
00 26.10.16 тихо ()   10 км    10/10 900 м 
[Sc]
-0.4 -4.8 72 -0  1045.9  -0.9  773  312           
03 26.10.16 100 (В) 10 км    10/10 840 м 
[Sc]
-0.5 -4.7 73 1045.1  -0.8  772  312  -0.5         
06 26.10.16 130 (ЮВ) 10 км    10/10 800 м 
[Sc diur, vesp]
-0.2 -4 75 1045  0.1  772  312           
09 26.10.16 140 (ЮВ) 10 км    10/10 800 м 
[Sc diur, vesp]
+0.1 -4.4 72 +1  1044.3  -0.6  772  311           
12 26.10.16 180 (Ю) 10 км  слаб. снег  10/10 700 м 
[Sc]
-0.8 -4.8 74 -2  1043.5  -0.8  771  312           
15 26.10.16 150 (ЮВ) 10 км    10/10 800 м 
[Sc]
-0.6 -4.8 73 1042.8  -0.7  771  312    +0.1       
18 26.10.16 160 (Ю) 10 км    10/10 800 м 
[Sc]
-0.3 -4.2 75 1041.8  -1  770  311           
21 26.10.16 170 (Ю) 10 км    10/10 720 м 
[Sc]
-0.4 -4.7 73 1041.4  -0.4  770  311           
00 27.10.16 240 (ЮЗ) 10 км    10/10 720 м 
[Sc]
-0.5 -4.7 73 -1  1041.1  -0.3  769  311           
03 27.10.16 250 (З) 10 км  слаб. снег  10/10 840 м 
[Sc]
-0.9 -5.7 70 -2  1041.1  769  312  -1.1    0.0     
06 27.10.16 200 (Ю) 10 км  {снег}  10/10 840 м 
[Sc]
-0.4 -5.2 70 1041.2  0.1  769  311           
09 27.10.16 150 (ЮВ) 10 км    10/10 1050 м 
[Sc]
+0.6 -4.8 67 +1  1040.6  -0.5  769  310           
12 27.10.16 180 (Ю) 10 км    10/10 1140 м 
[Sc]
+0.8 -5.6 62 +1  1040.2  -0.4  769  309           
15 27.10.16 140 (ЮВ) 10 км    10/10 1200 м 
[Sc]
-0.1 -5.5 67 +1  1039.5  -0.8  768  310    +1.1       
18 27.10.16 140 (ЮВ) 10 км    10/10 1200 м 
[Sc]
-0.2 -5.9 65 1039.2  -0.2  768  310           
21 27.10.16 160 (Ю) 10 км    10/10 1200 м 
[Sc]
-0.3 -4.7 72 1039  -0.2  768  310           
00 28.10.16 150 (ЮВ) н/о    н/о 
-0.3 -4.7 72 1037.9  -1.2  767  310           
03 28.10.16 150 (ЮВ) 10 км    10/10 1200 м 
[Sc]
-0.5 -4.4 75 1037.1  -0.7  766  310  -0.5         
06 28.10.16 тихо ()   10 км    10/0 средняя 
[Ac und]
+0.3 -3.7 74 1036.4  -0.6  766  309  -0.7         
09 28.10.16 200 (Ю) 10 км    10/0 средняя 
[Ac und]
+1.5 -4.3 65 +2  1035  -1.3  765  307           
12 28.10.16 290 (З) 10 км    10/1 600 м средняя 
[Sc|Ac und]
+1.5 -5.8 58 +2  1033.2  -1.8  764  307           
15 28.10.16 140 (ЮВ) 10 км    10/1 600 м средняя, верхняя 
[Sc|Ac lent|Ci fib]
-0.2 -5.1 69 1031.5  -1.8  762  308    +1.8       
18 28.10.16 150 (ЮВ) 10 км    4/0 средняя 
[Ac lent]
-1.7 -4.7 80 -1  1030  -1.5  761  309           
21 28.10.16 140 (ЮВ) 10 км    5/0 средняя, верхняя 
[Ac lent|Ci fib]
-2.3 -4.9 82 -2  1028  -2  760  309           
00 29.10.16 140 (ЮВ) 10 км    8/0 средняя, верхняя 
[Ac trans|Cs]
-1.8 -4.1 84 -1  1025.6  -2.3  758  308           
03 29.10.16 140 (ЮВ) 10 км    10/4 1080 м средняя 
[Sc|As op]
-1.7 -4.1 84 -1  1023.7  -1.9  756  307  -2.6         
06 29.10.16 150 (ЮВ) 10 км    10/10 1230 м 
[Sc]
-0.6 -3.6 80 1022.4  -1.2  755  305           
09 29.10.16 140 (ЮВ) 10 км    10/10 1200 м 
[Sc]
+0.3 -3.1 78 +1  1020.8  -1.5  754  304           
12 29.10.16 150 (ЮВ) 10 км    10/10 1350 м 
[Sc]
+0.9 -3.9 70 +2  1019  -1.8  753  303           
15 29.10.16 120 (ЮВ) 10 км    10/9 1320 м средняя 
[Sc|Ac und]
+0.1 -3.3 78 +1  1017.7  -1.3  752  303    +0.9       
18 29.10.16 120 (ЮВ) 10 км    10/10 1080 м 
[Sc]
-0.4 -3.4 80 1016.6  -1.1  751  304           
21 29.10.16 100 (В) 10 км    10/10 1110 м 
[Sc]
-1 -3.6 82 1015.3  -1.3  750  304           
00 30.10.16 100 (В) 4000 м  слаб. снег  10/10 180 м 
[Frnb|Ns]
-1.7 -4 84 -3  1014.1  -1.2  749  304           
03 30.10.16 100 (В) 2000 м  снег  10/10 180 м 
[Frnb|Ns]
-2.3 -3.8 89 -3  1013.3  -0.8  749  305  -2.3    0.6  равномерный
сухой снег
100% 
06 30.10.16 100 (В) 4000 м  слаб. снег  10/10 240 м 
[Frnb]
-2.8 -4.1 91 -4  1012.9  -0.4  748  305  -2.9         
09 30.10.16 100 (В) 10 км  слаб. снег  10/10 300 м 
[Frnb|Ns]
-1.8 -4.1 84 -4  1012.4  -0.4  748  304           
12 30.10.16 100 (В) 10 км  слаб. снег  10/10 240 м 
[Frnb|Ns]
-1.7 -4.3 82 -4  1012.2  -0.2  748  304           
15 30.10.16 090 (В) 10 км  слаб. снег  10/10 180 м 
[Frnb|Ns]
-2.5 -4.3 87 -4  1012.8  0.5  748  305    -1.5     
18 30.10.16 090 (В) 10 км  слаб. снег  10/10 210 м 
[Frnb|Ns]
-2.5 -4.3 87 -5  1012.9  0.1  748  305           
21 30.10.16 080 (В) 10 км  слаб. снег  10/10 360 м 
[Frnb|Ns]
-2.1 -3.7 89 -4  1012.4  -0.4  748  304           
00 31.10.16 080 (В) 4000 м  слаб. снег  10/10 330 м 
[Frnb|Ns]
-1.7 -3.2 89 -4  1012.2  -0.2  748  304           
03 31.10.16 080 (В) 10 км  слаб. снег  10/9 300 м средняя 
[Frnb|As op]
-1.3 -2.8 90 -3  1011.4  -0.8  747  303  -2.5    0.7  равномерный
сухой снег
100% 
06 31.10.16 070 (В) 10 км  {снег}  10/10 420 м 
[Sc]
-0.6 -2.3 88 -2  1010.6  -0.8  747  302           
09 31.10.16 080 (В) 10 км  слаб. снег  10/6 300 м средняя 
[Sc|As op]
+0.1 -2.9 80 -2  1009.6  -1  746  301           
12 31.10.16 060 (СВ) 2000 м  слаб. снег  10/10 150 м 
[Frnb]
-1.1 -2.7 89 -3  1009.1  -0.5  746  302           
15 31.10.16 060 (СВ) 3{10}  2000 м  снег  10/10 200 м 
[Frnb|Ns]
-1.8 -3 91 -4  1009.4  0.2  746  303    +0.2     
18 31.10.16 020 (С) 10 км  {снег}  10/3 200 м средняя 
[Frnb|As op]
-1.6 -4.6 80 -4  1009.4  746  303           
21 31.10.16 010 (С) 10 км    10/5 200 м средняя 
[Frnb|As op]
-2.5 -6.1 76 -5  1009.6  0.2  746  304           
00 01.11.16 350 (С) 10 км    10/8 200 м средняя 
[Frnb|As op]
-2.9 -7.4 71 -4  1010  0.3  746  305           
03 01.11.16 340 (С) 10 км    10/8 300 м средняя 
[Frnb|As op]
-3.3 -6.2 80 -4  1010.3  0.3  746  305  -3.3    0.5  равномерный
сухой снег
100% 
06 01.11.16 330 (СЗ) 10 км  слаб. снег  10/8 600 м верхняя 
[Sc|Ci fib]
-4.2 -7.4 78 -5  1011.3  747  307  -4.2         
Время (UTC), дата Ветер
(°,м/с) 
Видим.   Явления Облачность Т
(°С)
Тd
(°С)
f(%) Тe
(°С)
Pmin
(гПа)
dP
(гПа)
Po
(мм)
O2
(г/м3)
Тmin Tmax R s Состояние
почвы